Location: Ahstedt
(52.2048°N, 10.1060°E)
Time: 14:24:53
(UTC+00:00)

Cosmos 2082 Rocket - Visible Passes

Search period start: 11 April 2026 00:00
Search period end: 21 April 2026 00:00
Orbit: 830 x 854 km, 71.0° (Epoch: 11 April)

Date Brightness Start Highest point End Pass type
(mag) Time Alt. Az. Time Alt. Az. Time Alt. Az.
11 Apr 3.5 01:57:42 17° SSE 02:01:25 34° ESE 02:06:31 10° NE visible
11 Apr 2.5 03:39:43 10° SW 03:45:18 53° NW 03:50:56 10° NNE visible
12 Apr 3.5 01:43:21 19° SSE 01:46:31 33° ESE 01:51:35 10° NE visible
12 Apr 2.5 03:25:10 12° SW 03:30:22 55° NW 03:36:01 10° NNE visible
13 Apr 3.5 01:28:57 21° SSE 01:31:39 32° ESE 01:36:37 10° NE visible
13 Apr 2.5 03:10:46 15° SW 03:15:26 57° NW 03:21:07 10° NNE visible
14 Apr 3.6 01:14:29 23° SE 01:16:45 30° ESE 01:21:40 10° NE visible
14 Apr 2.4 02:56:18 18° SW 03:00:31 60° NW 03:06:12 10° NNE visible
15 Apr 3.6 00:59:59 24° SE 01:01:52 29° ESE 01:06:43 10° NE visible
15 Apr 2.4 02:41:49 21° SW 02:45:35 62° NW 02:51:17 10° NNE visible
16 Apr 3.6 00:45:27 25° SE 00:46:59 28° ESE 00:51:46 10° NE visible
16 Apr 2.4 02:27:17 25° SW 02:30:39 64° NW 02:36:23 10° NNE visible
17 Apr 3.6 00:30:53 25° SE 00:32:06 27° ESE 00:36:48 10° NE visible
17 Apr 2.3 02:12:42 28° SW 02:15:44 66° NW 02:21:28 10° NNE visible
18 Apr 3.6 00:16:18 25° ESE 00:17:13 26° ESE 00:21:50 10° NE visible
18 Apr 2.3 01:58:06 32° SW 02:00:49 69° NW 02:06:33 10° NNE visible
19 Apr 3.6 00:01:40 24° ESE 00:02:20 25° ESE 00:06:52 10° NE visible
19 Apr 2.3 01:43:28 36° SW 01:45:53 71° WNW 01:51:39 10° NNE visible
19 Apr 3.9 03:26:39 10° W 03:31:00 22° NNW 03:35:22 10° NNE visible
19 Apr 3.7 23:47:00 23° ESE 23:47:28 24° ESE 23:51:53 10° NE visible
20 Apr 2.2 01:28:49 39° SW 01:30:58 74° WNW 01:36:44 10° NNE visible
20 Apr 3.9 03:11:38 10° W 03:16:02 22° NW 03:20:28 10° NNE visible
20 Apr 3.7 23:32:19 23° ESE 23:32:35 23° ESE 23:36:55 10° NE visible
